DW8039 Weather Reports


time (UTC)temp
C
wind
direction
speed
KPH
gust
KPH
rain 1hr
cm
rain 24hr
cm
rain mn
cm
humidity
%
barometer
mb
20260502160404 11 114 3.2 11.3 0.15 1.73 1.73 92 1013.5
20260502150903 11 73 0.0 1.6 0.43 1.57 1.57 92 1013.9
20260502150403 11 73 1.6 8.0 0.43 1.55 1.55 92 1014.1
20260502123403 13 96 3.2 4.8 0.10 0.10 0.10 81 1014.9
20260502122904 13 160 3.2 12.9 0.05 0.05 0.05 79 1015.0
20260502122403 13 96 3.2 19.3 0.00 0.00 0.00 77 1015.0
20260502120904 14 118 4.8 14.5 0.00 0.00 0.00 78 1015.2
20260502120404 14 129 4.8 16.1 0.00 0.00 0.00 77 1015.3
20260502115404 15 109 4.8 14.5 0.00 0.00 0.00 74 1015.2
20260502113904 15 54 4.8 8.0 0.00 0.00 0.00 76 1015.4
20260502113404 15 59 3.2 8.0 0.00 0.00 0.00 76 1015.5
20260502112904 15 100 3.2 9.7 0.00 0.00 0.00 76 1015.6
20260502112403 15 68 4.8 12.9 0.00 0.00 0.00 76 1015.7
20260502110404 14 101 3.2 11.3 0.00 0.00 0.00 78 1016.2
20260502105404 14 87 4.8 12.9 0.00 0.00 0.00 78 1016.3
20260502103904 14 131 3.2 11.3 0.00 0.00 0.00 79 1016.6
20260502103404 14 144 0.0 9.7 0.00 0.00 0.00 79 1016.7
20260502102904 14 170 4.8 12.9 0.00 0.00 0.00 79 1016.7
20260502102404 14 148 1.6 14.5 0.00 0.00 0.00 80 1016.7
20260502100903 13 136 1.6 9.7 0.00 0.00 0.00 81 1016.9
20260502100404 13 122 3.2 11.3 0.00 0.00 0.00 81 1017.0
20260502090903 13 103 3.2 9.7 0.00 0.00 0.00 82 1017.1
20260502090403 13 125 1.6 4.8 0.00 0.00 0.00 82 1017.2
20260502070903 11 160 1.6 9.7 0.00 0.00 0.00 92 1018.1
20260502070404 11 123 1.6 11.3 0.00 0.00 0.00 92 1018.2
20260502065904 11 115 1.6 4.8 0.00 0.00 0.00 92 1018.1
20260502065404 11 115 1.6 8.0 0.00 0.00 0.00 92 1018.2
20260502063903 10 120 3.2 4.8 0.00 0.00 0.00 92 1018.5
20260502063404 10 119 1.6 4.8 0.00 0.00 0.00 92 1018.4
20260502062903 10 121 3.2 8.0 0.00 0.00 0.00 92 1018.3
20260502062404 10 103 1.6 11.3 0.00 0.00 0.00 92 1018.3
20260502060904 10 125 3.2 8.0 0.00 0.00 0.00 92 1018.4
20260502060404 10 121 1.6 4.8 0.00 0.00 0.00 92 1018.3
20260502055405 10 121 4.8 9.7 0.00 0.00 0.00 92 1018.2
20260502053904 10 138 1.6 3.2 0.00 0.00 0.00 92 1018.1
20260502053405 10 138 3.2 9.7 0.00 0.00 0.00 92 1018.4
20260502052904 10 115 3.2 4.8 0.00 0.00 0.00 92 1018.4
20260502052404 10 119 3.2 9.7 0.00 0.00 0.00 92 1018.4
20260502050903 9 110 1.6 4.8 0.00 0.00 0.00 92 1018.6
20260502050404 9 115 3.2 9.7 0.00 0.00 0.00 92 1018.7
20260502045903 9 114 1.6 4.8 0.00 0.00 0.00 92 1018.7
20260502045404 9 113 1.6 11.3 0.00 0.00 0.00 92 1018.8
20260502043904 9 119 3.2 9.7 0.00 0.00 0.00 92 1018.9
20260502043403 9 123 0.0 4.8 0.00 0.00 0.00 92 1018.9
20260502042904 9 89 1.6 4.8 0.00 0.00 0.00 92 1019.0
20260502040904 9 138 1.6 3.2 0.00 0.00 0.00 92 1019.0
20260502035904 9 138 0.0 4.8 0.00 0.00 0.00 92 1019.1
20260502035404 9 139 1.6 4.8 0.00 0.00 0.00 92 1019.3
20260502033905 9 140 0.0 4.8 0.00 0.00 0.00 92 1019.3
20260502033404 9 140 0.0 3.2 0.00 0.00 0.00 92 1019.3
20260502032904 9 140 1.6 4.8 0.00 0.00 0.00 92 1019.3
20260502030404 9 136 0.0 0.0 0.00 0.00 0.00 92 1019.3
20260502025904 10 136 0.0 0.0 0.00 0.00 0.00 92 1019.3
20260502025404 10 136 0.0 1.6 0.00 0.00 0.00 92 1019.3
20260502023903 10 136 1.6 4.8 0.00 0.00 0.00 92 1019.2
20260502023404 10 136 0.0 4.8 0.00 0.00 0.00 92 1019.3
20260502022404 10 137 3.2 4.8 0.00 0.00 0.00 92 1019.3
20260502020904 10 140 3.2 4.8 0.00 0.00 0.00 92 1019.5
20260502020403 10 145 3.2 4.8 0.00 0.00 0.00 92 1019.7
20260502015904 10 147 3.2 4.8 0.00 0.00 0.00 92 1019.7
20260502015403 10 148 1.6 4.8 0.00 0.00 0.00 92 1019.8
20260502013903 10 169 1.6 4.8 0.00 0.00 0.00 92 1020.1
20260502013404 10 173 3.2 4.8 0.00 0.00 0.00 92 1020.1
20260502012903 10 175 1.6 4.8 0.00 0.00 0.00 92 1020.2
20260502012404 10 178 3.2 4.8 0.00 0.00 0.00 92 1020.2
20260502010904 10 250 0.0 0.0 0.00 0.00 0.00 92 1020.4
20260502010404 10 252 0.0 0.0 0.00 0.00 0.00 91 1020.5
20260502005904 10 253 0.0 0.0 0.00 0.00 0.00 91 1020.5
20260502005403 10 253 0.0 0.0 0.00 0.00 0.00 91 1020.6
20260502003903 10 253 0.0 0.0 0.00 0.00 0.00 91 1020.6
20260502003404 10 254 0.0 0.0 0.00 0.00 0.00 91 1020.7
20260502002903 10 254 0.0 0.0 0.00 0.00 0.00 91 1020.7
20260502000904 10 255 0.0 0.0 0.00 0.00 0.00 91 1020.7
20260502000403 10 255 0.0 0.0 0.00 0.00 0.00 90 1020.8
20260501235904 10 255 0.0 0.0 0.00 0.00 0.00 90 1020.9
20260501235404 10 255 0.0 0.0 0.00 0.00 0.00 90 1020.9
20260501233904 10 255 0.0 0.0 0.00 0.00 0.00 90 1021.1
20260501233404 11 255 0.0 0.0 0.00 0.00 0.00 90 1021.0
20260501232904 11 255 0.0 0.0 0.00 0.00 0.00 90 1021.1
20260501225903 11 258 0.0 0.0 0.00 0.00 0.00 90 1021.2
20260501223904 11 258 0.0 1.6 0.00 0.00 0.00 89 1021.3
20260501223403 11 258 0.0 0.0 0.00 0.00 0.00 89 1021.3
20260501222905 11 258 0.0 1.6 0.00 0.00 0.00 89 1021.3
20260501222404 11 258 0.0 4.8 0.00 0.00 0.00 89 1021.4
20260501220904 11 258 1.6 4.8 0.00 0.00 0.00 89 1021.5
20260501220404 11 259 1.6 4.8 0.00 0.00 0.00 89 1021.5
20260501215904 11 259 3.2 4.8 0.00 0.00 0.00 89 1021.5
20260501213903 12 257 0.0 4.8 0.00 0.00 0.00 89 1021.5
20260501213403 12 257 1.6 3.2 0.00 0.00 0.00 88 1021.6
20260501212903 12 257 1.6 3.2 0.00 0.00 0.00 89 1021.6
20260501212404 12 257 3.2 19.3 0.00 0.00 0.00 89 1021.6
20260501210903 12 229 4.8 11.3 0.00 0.00 0.00 88 1021.7
20260501210404 12 244 9.7 19.3 0.00 0.00 0.00 88 1021.7
20260501205904 12 247 8.0 14.5 0.00 0.00 0.00 88 1021.7
20260501205404 12 216 8.0 16.1 0.00 0.00 0.00 88 1021.6
20260501203904 12 217 8.0 14.5 0.00 0.00 0.00 87 1021.5
20260501202904 12 222 8.0 14.5 0.00 0.00 0.00 86 1021.6
20260501202404 12 212 6.4 9.7 0.00 0.00 0.00 86 1021.5
20260501200904 12 246 4.8 11.3 0.00 0.00 0.00 85 1021.4
20260501200404 12 237 6.4 16.1 0.00 0.00 0.00 85 1021.3
20260501195904 12 233 8.0 14.5 0.00 0.00 0.00 85 1021.2
20260501195404 12 229 4.8 12.9 0.00 0.00 0.00 85 1021.2
20260501193903 12 231 9.7 14.5 0.00 0.00 0.00 84 1021.0
20260501193403 12 240 8.0 14.5 0.00 0.00 0.00 84 1021.0
20260501192903 12 246 6.4 12.9 0.00 0.00 0.00 83 1021.0
20260501192403 12 233 9.7 16.1 0.00 0.00 0.00 83 1021.0
20260501185903 13 259 4.8 11.3 0.00 0.00 0.00 82 1020.9
20260501185404 13 250 4.8 14.5 0.00 0.00 0.00 81 1020.9
20260501183904 13 243 9.7 16.1 0.00 0.00 0.00 80 1020.8
20260501183404 13 229 8.0 16.1 0.00 0.00 0.00 80 1020.8
20260501182904 13 240 11.3 19.3 0.00 0.00 0.00 79 1020.8
20260501182404 13 234 8.0 20.9 0.00 0.00 0.00 79 1020.9
20260501180903 14 235 9.7 19.3 0.00 0.00 0.00 78 1020.9
20260501180404 14 231 6.4 12.9 0.00 0.00 0.00 77 1020.9
20260501175903 14 235 11.3 19.3 0.00 0.00 0.00 77 1020.9
20260501173903 15 241 9.7 19.3 0.00 0.00 0.00 74 1020.8
20260501173404 15 241 9.7 16.1 0.00 0.00 0.00 74 1020.9
20260501172404 15 248 8.0 19.3 0.00 0.00 0.00 73 1020.8
20260501170904 15 245 9.7 16.1 0.00 0.00 0.00 73 1020.8
20260501170404 15 246 9.7 19.3 0.00 0.00 0.00 73 1020.7
20260501165903 15 237 9.7 16.1 0.00 0.00 0.00 74 1020.8
20260501165404 15 262 12.9 19.3 0.00 0.00 0.00 75 1020.8
20260501163904 15 236 9.7 19.3 0.00 0.00 0.00 73 1020.8
20260501163403 15 218 9.7 20.9 0.00 0.00 0.00 73 1020.9
20260501162904 15 222 9.7 20.9 0.00 0.00 0.00 74 1020.9
20260501162403 15 224 11.3 20.9 0.00 0.00 0.00 75 1020.9
20260501160903 15 239 11.3 19.3 0.00 0.00 0.00 74 1021.0